CW8822 Caguas PR US current weather conditions

sailwx.info

Wind from 132

Air temperature 25.0° C
Dewpoint 22.5° C

Last reported at 2014-Jul-30 01:37 UTC.
Time now 2014-Jul-30 03:02 UTC

Location: N 18°12' W 066°01'.
View on Google Maps.

See reports from other nearby stations

  
Tides and Currents Weather Stations Pressure Air Temp Water Temp Dewpoint Dewpoint Depression Visibility Wind Speed Wind Dir Waves Ship Positions
date/time (UTC)wind fromknots sea level pressurealtimeterstation pressurevisibilityair tempwater tempwave heightnotes
2014-Jul-30 01:37 132 25.0
2014-Jul-30 01:22 132 25.0
2014-Jul-30 01:06 132 25.0
2014-Jul-30 00:51 132 25.0
2014-Jul-30 00:36 132 25.0
2014-Jul-30 00:21 132 25.0
2014-Jul-30 00:06 132 25.6
2014-Jul-29 23:51 132 25.6
2014-Jul-29 23:36 132 25.6
2014-Jul-29 23:21 126 26.1
2014-Jul-29 23:06 126 0 gusting 6 26.7
2014-Jul-29 22:51 097 26.7
2014-Jul-29 22:36 147 27.2
2014-Jul-29 22:21 133 0 gusting 6 27.2
2014-Jul-29 22:06 092 0 gusting 7 27.8
2014-Jul-29 21:51 156 28.3
2014-Jul-29 21:36 117 2 gusting 7 28.3
2014-Jul-29 21:21 136 0 gusting 7 28.9
2014-Jul-29 21:06 057 2 gusting 7 28.9
2014-Jul-29 20:51 074 2 gusting 9 28.9
2014-Jul-29 20:36 100 2 gusting 7 28.9
2014-Jul-29 20:21 096 2 gusting 9 28.9
2014-Jul-29 20:06 140 3 gusting 10 29.4
2014-Jul-29 19:52 107 2 gusting 11 29.4
2014-Jul-29 19:36 149 4 gusting 12 29.4
2014-Jul-29 19:22 140 2 gusting 13 30.0
2014-Jul-29 19:07 137 4 gusting 13 30.0
2014-Jul-29 18:52 107 4 gusting 11 30.0
2014-Jul-29 18:37 069 2 gusting 10 30.0
2014-Jul-29 18:22 147 3 gusting 12 30.6
2014-Jul-29 18:06 094 3 gusting 11 30.6
2014-Jul-29 17:51 097 1 gusting 9 30.6
2014-Jul-29 17:37 121 3 gusting 10 31.1
2014-Jul-29 17:21 086 1 gusting 8 30.6
2014-Jul-29 17:06 157 2 gusting 8 30.6
2014-Jul-29 16:51 046 5 gusting 13 30.0
2014-Jul-29 16:36 134 3 gusting 9 30.6
2014-Jul-29 16:20 090 3 gusting 9 30.0
2014-Jul-29 16:05 107 4 gusting 8 30.6
2014-Jul-29 15:51 146 3 gusting 15 30.0
2014-Jul-29 15:35 105 4 gusting 10 30.0
2014-Jul-29 15:21 128 2 gusting 8 30.0
2014-Jul-29 15:06 142 2 gusting 9 29.4
2014-Jul-29 14:50 141 4 gusting 13 29.4
2014-Jul-29 14:35 152 1 gusting 8 28.3
2014-Jul-29 14:20 111 5 gusting 15 28.9
2014-Jul-29 14:06 130 3 gusting 9 29.4
2014-Jul-29 13:50 040 2 gusting 6 29.4
2014-Jul-29 13:35 162 3 gusting 6 27.8
2014-Jul-29 13:19 089 27.2
2014-Jul-29 13:05 130 27.2
2014-Jul-29 12:50 127 0 gusting 6 27.2
2014-Jul-29 12:34 028 27.8
2014-Jul-29 12:19 047 0 gusting 3 27.2
2014-Jul-29 12:05 261 26.1
2014-Jul-29 11:49 150 25.0
2014-Jul-29 11:34 136 23.9
2014-Jul-29 11:20 236 23.3
2014-Jul-29 11:04 175 23.3
2014-Jul-29 10:49 161 23.3
2014-Jul-29 10:34 162 23.3
2014-Jul-29 10:18 159 3 gusting 6 22.8
2014-Jul-29 10:04 142 22.8
2014-Jul-29 09:49 128 22.8
2014-Jul-29 09:33 128 22.8
2014-Jul-29 09:18 128 22.8
2014-Jul-29 09:03 128 23.3
2014-Jul-29 08:48 128 23.3
2014-Jul-29 08:34 128 0 gusting 1 23.3
2014-Jul-29 08:17 128 23.3
2014-Jul-29 08:03 128 23.3
2014-Jul-29 07:48 128 23.3
2014-Jul-29 07:34 128 23.3
2014-Jul-29 07:17 128 23.3
2014-Jul-29 07:03 128 23.3
2014-Jul-29 06:48 128 23.3
2014-Jul-29 06:32 128 23.3
2014-Jul-29 06:17 128 23.9
2014-Jul-29 06:03 128 23.9
2014-Jul-29 05:47 128 23.9
2014-Jul-29 05:32 128 23.9
2014-Jul-29 05:18 128 23.9
2014-Jul-29 05:03 128 24.4
2014-Jul-29 04:47 128 24.4
2014-Jul-29 04:33 131 24.4
2014-Jul-29 04:17 131 24.4
2014-Jul-29 04:02 131 24.4
2014-Jul-29 03:47 131 24.4
2014-Jul-29 03:31 131 24.4
2014-Jul-29 03:16 131 24.4
2014-Jul-29 03:02 132 25.0
2014-Jul-29 02:47 132 25.0
2014-Jul-29 02:32 132 25.0
2014-Jul-29 02:16 133 25.0
2014-Jul-29 02:02 133 25.0
2014-Jul-29 01:46 133 25.0
2014-Jul-29 01:31 126 25.0
2014-Jul-29 01:16 112 25.0
2014-Jul-29 01:01 116 0 gusting 6 25.0
2014-Jul-29 00:47 113 25.6
2014-Jul-29 00:30 131 25.6
2014-Jul-29 00:16 120 0 gusting 3 25.6
2014-Jul-29 00:01 126 0 gusting 6 25.6
2014-Jul-28 23:47 117 0 gusting 4 26.1
2014-Jul-28 23:30 131 1 gusting 4 26.1
2014-Jul-28 23:15 156 1 gusting 7 26.7
2014-Jul-28 23:01 122 26.7
2014-Jul-28 22:46 077 26.7
2014-Jul-28 22:15 091 2 gusting 7 28.3
2014-Jul-28 22:00 102 1 gusting 6 28.3
2014-Jul-28 21:45 086 1 gusting 5 28.9
2014-Jul-28 21:30 088 3 gusting 9 28.9
2014-Jul-28 21:16 105 1 gusting 9 29.4
2014-Jul-28 21:00 117 3 gusting 7 29.4
2014-Jul-28 20:45 142 2 gusting 7 29.4
2014-Jul-28 20:31 065 2 gusting 11 30.0
2014-Jul-28 19:59 070 1 gusting 9 30.0
2014-Jul-28 19:45 076 1 gusting 6 30.0
2014-Jul-28 19:30 121 2 gusting 8 30.0
2014-Jul-28 19:15 095 2 gusting 8 30.6
2014-Jul-28 18:59 109 4 gusting 12 30.6
2014-Jul-28 18:44 148 3 gusting 10 30.6
2014-Jul-28 18:30 079 1 gusting 9 31.7
2014-Jul-28 18:13 106 2 gusting 13 31.1
2014-Jul-28 17:59 073 1 gusting 8 31.7
2014-Jul-28 17:44 071 3 gusting 8 31.1
2014-Jul-28 17:30 105 0 gusting 7 31.7
2014-Jul-28 17:13 109 3 gusting 12 31.1
2014-Jul-28 16:58 099 3 gusting 9 31.7
2014-Jul-28 16:44 164 2 gusting 7 31.7
2014-Jul-28 16:14 074 3 gusting 9 31.1
2014-Jul-28 15:58 105 3 gusting 9 31.7
2014-Jul-28 15:43 113 2 gusting 6 31.7
2014-Jul-28 15:29 077 1 gusting 13 30.6
2014-Jul-28 15:13 073 4 gusting 12 30.6
2014-Jul-28 14:58 205 3 gusting 7 31.1
2014-Jul-28 14:42 058 2 gusting 7 30.6
2014-Jul-28 14:28 040 6 gusting 15 30.6
2014-Jul-28 14:13 134 1 gusting 6 30.6
2014-Jul-28 13:58 043 1 gusting 8 29.4
2014-Jul-28 13:43 087 1 gusting 6 29.4
2014-Jul-28 13:28 034 3 gusting 9 29.4
2014-Jul-28 13:13 024 0 gusting 6 28.3
2014-Jul-28 12:57 129 0 gusting 6 27.8
2014-Jul-28 12:44 100 27.2
2014-Jul-28 12:27 342 0 gusting 5 26.7
2014-Jul-28 12:12 010 26.7
2014-Jul-28 11:57 126 26.1
2014-Jul-28 11:42 127 25.6
2014-Jul-28 11:27 127 25.0
2014-Jul-28 11:12 127 24.4
2014-Jul-28 10:57 127 23.9
2014-Jul-28 10:42 127 23.9
2014-Jul-28 10:26 127 23.9
2014-Jul-28 10:11 127 23.9
2014-Jul-28 09:56 127 23.3
2014-Jul-28 09:41 127 23.3
2014-Jul-28 09:27 127 23.3
2014-Jul-28 09:11 127 23.3
2014-Jul-28 08:56 127 23.9
2014-Jul-28 08:42 127 23.3
2014-Jul-28 08:26 127 0 gusting 2 23.9
2014-Jul-28 08:11 127 0 gusting 1 23.9
2014-Jul-28 07:57 127 0 gusting 2 23.9
2014-Jul-28 07:40 127 23.9
2014-Jul-28 07:26 127 23.9
2014-Jul-28 07:11 127 23.9
2014-Jul-28 06:55 127 23.9
2014-Jul-28 06:41 127 23.9
2014-Jul-28 06:26 127 24.4
2014-Jul-28 06:10 127 24.4
2014-Jul-28 05:56 127 24.4
2014-Jul-28 05:40 123 25.0
2014-Jul-28 05:25 119 25.0
2014-Jul-28 05:10 119 25.0
2014-Jul-28 04:56 114 25.0
2014-Jul-28 04:39 105 0 gusting 2 25.0
2014-Jul-28 04:25 105 25.0
2014-Jul-28 04:10 105 25.0
2014-Jul-28 03:54 105 25.0
2014-Jul-28 03:40 105 25.0
2014-Jul-28 03:25 105 25.0
2014-Jul-28 03:10 105 25.6